Probability
0 0 0 0 0 0 0 0 0 0 0 0 0 0 0 0 0 0 0 0 0 0 0 0 0 0 0 0 0 0 0 0 0 0 0 0 0 0 0 0 0 0 0 0
0 0 0 0 0 0 0 0 0 0 0 0 0 0 0 0 0 0 0 0 0 0 0 0 0 0 0 0 0 0 0 0 0 0 0 0 0 0 0 0 0 0 0 0
0 0 0 0 0 0 0 0 0 0 0 0 0 0 0 0 0 0 0 0 0 0 0 0 0 0 0 0 0 0 0 0 0 0 0 0 0 0 0 0 0 0 0 0
0 0 0 0 0 0 0 0 0 0 0 0 0 0 0 0 0 0 0 0 0 0 0 0 0 0 0 0 0 0 0 0 0 0 0 0 0 0 0 0 0 0 0 0
0 0 0 0 0 0 0 0 0 0 0 0 0 0 0 0 0 0 0 0 0 0 0 0 0 0 0 0 0 0 0 0 0 0 0 0 0 0 0 0 0 0 0 0
0 0 0 0 0 0 0 0 0 0 0 0 0 0 0 0 0 0 0 0 0 0 0 0 0 0 0 0 0 0 0 0 0 0 0 0 0 0 0 0 0 0 0 0
0 0 0 0 0 0 0 0 0 0 0 0 0 0 0 0 0 0 0 0 0 0 0 0 0 0 0 0 0 0 0 0 0 0 0 0 0 0 0 0 0 0 0 0
0 0 0 0 0 0 0 0 0 0 0 0 0 0 0 0 0 0 0 0 0 0 0 0 0 0 0 0 0 0 0 0 0 0 0 0 0 0 0 0 0 0 0 0
0 0 0 0 0 0 0 0 0 0 0 0 0 0 0 0 0 0 0 0 0 0 0 0 0 0 0 0 0 0 0 0 0 0 0 0 0 0 0 0 0 0 0 0
0 0 0 0 0 0 0 0 0 0 0 0 0 0 0 0 0 0 0 0 0 0 0 0 0 0 0 0 0 0 0 0 0 0 0 0 0 0 0 0 0 0 0 0
0 0 0 0 0 0 0 0 0 0 0 0 0 0 0 0 0 0 0 0 0 0 0 0 0 0 0 0 0 0 0 0 0 0 0 0 0 0 0 0 0 0 0 0
0 0 0 0 0 0 0 0 0 0 0 0 0 0 0 0 0 0 0 0 0 0 0 0 0 0 0 0 0 0 0 0 0 0 0 0 0 0 0 0 0 0 0 0
0 0 0 0 0 0 0 0 0 0 0 0 0 0 0 0 0 0 0 0 0 0 0 0 0 0 0 0 0 0 0 0 0 0 0 0 0 0 0 0 0 0 0 0
0 0 0 0 0 0 0 0 0 0 0 0 0 0 0 0 0 0 0 0 0 0 0 0 0 0 0 0 0 0 0 0 0 0 0 0 0 0 0 0 0 0 0 0
0 0 0 0 0 0 0 0 0 0 0 0 0 0 0 0 0 0 0 0 0 0 0 0 0 0 0 0 0 0 0 0 0 0 0 0 0 0 0 0 0 0 0 0
0 0 0 0 0 0 0 0 0 0 0 0 0 0 0 0 0 0 0 0 0 0 0 0 0 0 0 0 0 0 0 0 0 0 0 0 0 0 0 0 0 0 0 0
0 0 0 0 0 0 0 0 0 0 0 0 0 0 0 0 0 0 0 0 0 0 0 0 0 0 0 0 0 0 0 0 0 0 0 0 0 0 0 0 0 0 0 0
0 0 0 0 0 0 0 0 0 0 0 0 0 0 0 0 0 0 0 0 0 0 0 0 0 0 0 0 0 0 0 0 0 0 0 0 0 0 0 0 0 0 0 0
0 0 0 0 0 0 0 0 0 0 0 0 0 0 0 0 0 0 0 0 0 0 0 0 0 0 0 0 0 0 0 0 0 0 0 0 0 0 0 0 0 0 0 0
0 0 0 0 0 0 0 0 0 0 0 0 0 0 0 0 0 0 0 0 0 0 0 0 0 0 0 0 0 0 0 0 0 0 0 0 0 0 0 0 0 0 0 0
0 0 0 0 0 0 0 0 0 0 0 0 0 0 0 0 0 0 0 0 0 0 0 0 0 0 0 0 0 0 0 0 0 0 0 0 0 0 0 0 0 0 0 0
0 0 0 0 0 0 0 0 0 0 0 0 0 0 0 0 0 0 0 0 0 0 0 0 0 0 0 0 0 0 0 0 0 0 0 0 0 0 0 0 0 0 0 0
0 0 0 0 0 0 0 0 0 0 0 0 0 0 0 0 0 0 0 0 0 0 0 0 0 0 0 0 0 0 0 0 0 0 0 0 0 0 0 0 0 0 0 0
0 0 0 0 0 0 0 0 0 0 0 0 0 0 0 0 0 0 0 0 0 0 0 0 0 0 0 0 0 0 0 0 0 0 0 0 0 0 0 0 0 0 0 0
0 0 0 0 0 0 0 0 0 0 0 0 0 0 0 0 0 0 0 0 0 0 0 0 0 0 0 0 0 0 0 0 0 0 0 0 0 0 0 0 0 0 0 0
0 0 0 0 0 0 0 0 0 0 0 0 0 0 0 0 0 0 0 0 0 0 0 0 0 0 0 0 0 0 0 0 0 0 0 0 0 0 0 0 0 0 0 0
0 0 0 0 0 0 0 0 0 0 0 0 0 0 0 0 0 0 0 0 0 0 0 0 0 0 0 0 0 0 0 0 0 0 0 0 0 0 0 0 0 0 0 0
Wind_Speed
5 3 2 1 3 4 4 2 2 2 3 3 3 1 2 3 5 6 7 9 9 9 8 7 7 7 7 8 8 9 9 9 10 9 9 9 10 10 10 10 10 10 9 9
4 3 4 6 6 6 5 4 4 4 4 4 4 3 4 3 4 5 7 8 9 9 8 8 7 6 6 7 8 8 9 9 8 8 8 9 9 9 10 10 10 10 9 9
2 2 6 8 9 11 7 7 7 7 5 7 6 5 4 3 4 5 6 8 8 8 8 7 7 6 5 6 6 7 8 8 8 8 8 8 8 9 9 9 9 9 9 9
2 4 5 5 3 8 9 9 10 6 5 8 7 4 4 5 5 5 5 7 7 8 7 6 5 4 4 4 5 6 7 8 8 8 8 8 8 8 9 8 8 8 8 9
3 4 5 3 6 8 9 8 13 12 10 9 6 6 7 5 4 4 5 6 6 7 7 6 6 5 3 3 4 6 7 7 7 8 8 8 8 8 8 7 7 7 8 8
4 5 3 2 8 8 6 7 12 16 14 12 10 7 5 5 3 2 2 4 5 5 6 6 6 5 3 3 4 5 6 6 6 7 7 7 8 8 7 6 7 6 7 8
7 6 5 5 10 11 7 1 11 17 15 14 13 5 6 6 3 2 1 2 3 4 4 5 5 4 3 3 4 4 4 4 5 6 6 7 6 6 6 6 6 7 7 7
6 7 3 12 13 11 5 4 10 15 15 15 11 7 6 5 4 3 2 1 2 3 3 4 5 4 3 4 3 2 3 3 4 5 5 5 6 6 6 6 6 7 7 7
7 4 4 14 10 8 4 7 9 14 14 14 13 11 9 7 5 4 3 2 1 2 3 2 4 4 4 3 1 2 3 3 3 4 4 4 5 5 5 6 5 6 6 6
8 9 8 13 12 8 8 8 9 13 14 15 14 12 10 8 6 6 5 3 2 2 2 2 3 3 3 1 2 3 4 3 2 2 3 4 3 4 4 5 6 6 6 6
9 8 6 11 16 15 12 9 9 13 14 15 14 13 11 9 8 6 5 4 3 2 1 2 2 2 2 1 2 4 4 3 2 1 1 2 2 3 4 5 5 6 6 6
7 6 6 4 9 18 16 14 13 15 15 15 14 13 12 10 8 7 6 5 4 4 3 2 1 1 1 1 3 4 3 3 2 1 1 1 1 1 2 1 2 3 5 7
5 1 4 1 3 14 18 17 15 16 16 15 14 13 12 10 9 8 7 7 6 5 4 3 2 1 1 1 3 4 3 3 2 2 1 1 1 2 1 3 4 3 4 6
10 6 6 7 6 11 16 17 16 16 16 16 14 13 12 11 10 10 9 8 6 5 5 4 4 2 1 2 3 4 3 3 3 3 2 2 1 1 1 2 1 2 4 4
13 14 10 3 5 10 13 15 16 16 16 16 14 14 13 12 12 11 9 8 7 7 6 5 5 4 2 3 3 4 3 3 3 3 3 3 2 2 1 1 1 1 1 3
9 12 12 11 10 11 15 18 18 18 17 17 15 15 14 13 11 10 9 9 9 8 7 6 6 4 3 4 4 3 3 2 4 4 4 4 3 3 2 2 1 0 1 2
9 10 13 15 15 15 17 18 18 18 18 18 17 16 14 13 12 11 10 10 9 8 7 7 6 5 5 5 5 3 3 3 5 6 5 4 4 4 3 3 2 1 0 2
15 14 13 14 15 16 17 18 18 18 18 18 17 16 15 15 14 13 12 11 10 9 9 8 7 7 6 6 5 3 3 3 4 4 4 4 4 4 4 4 3 3 2 4
15 16 15 15 14 14 15 16 17 18 17 17 18 17 17 16 15 13 12 11 11 11 9 9 8 9 8 7 5 4 4 4 4 4 4 4 5 5 5 5 4 4 4 4
15 15 16 15 14 13 13 14 15 16 17 17 18 17 17 16 15 13 13 12 10 8 7 7 9 10 9 8 7 6 5 5 5 4 4 5 5 5 5 5 5 5 5 5
15 14 14 14 14 13 12 13 14 15 16 17 18 18 17 16 15 14 12 11 11 10 8 9 8 7 8 6 9 7 6 5 5 5 5 5 5 5 5 5 6 6 6 6
16 13 12 12 12 12 11 11 12 14 15 16 17 17 16 16 15 14 14 10 8 9 9 8 9 9 9 8 7 7 7 6 6 5 5 5 5 5 5 5 5 6 6 6
16 14 12 9 10 10 9 9 11 12 14 15 16 16 16 13 11 11 11 10 8 11 9 8 9 11 13 10 8 8 8 8 7 6 6 6 5 5 5 6 5 5 6 6
18 16 13 10 6 5 6 6 7 8 9 10 11 13 13 11 10 9 8 7 9 11 9 9 12 13 14 9 8 9 8 8 7 7 6 6 6 6 6 6 6 6 6 7
18 17 16 13 9 6 4 2 3 4 6 5 7 8 7 7 7 7 7 8 9 10 8 9 13 14 11 9 9 9 9 8 7 6 7 7 6 6 7 6 6 6 6 6
16 14 12 12 10 8 6 4 2 1 2 3 3 3 4 4 5 4 4 6 9 9 7 6 8 11 10 10 10 10 9 8 8 8 8 8 8 8 7 7 9 7 7 7
12 12 11 11 11 10 9 7 6 5 4 2 2 2 2 2 3 4 5 5 5 6 6 6 6 7 8 8 8 9 9 8 8 8 8 8 8 8 8 9 8 7 7 7
Wind_Direction
91 109 169 208 197 207 240 277 277 158 197 185 187 223 303 316 329 340 354 359 1 359 1 5 11 16 20 20 20 20 26 30 29 33 36 37 39 38 39 37 38 37 36 35
165 185 237 249 224 214 221 222 224 208 215 189 191 220 250 278 316 332 348 353 353 356 357 359 6 9 15 18 19 21 27 30 28 29 33 34 36 36 36 36 36 36 33 33
193 186 255 250 218 206 208 206 207 212 189 172 197 213 238 276 298 320 335 342 347 352 356 352 360 0 7 13 15 22 28 29 27 29 31 30 32 33 31 35 35 32 30 28
256 233 254 84 106 195 212 215 211 214 181 188 199 208 241 262 278 304 330 337 344 346 350 348 355 359 5 17 15 24 30 31 30 28 30 30 31 29 26 29 32 29 28 26
261 273 276 180 183 189 208 228 207 206 197 192 192 217 223 217 245 289 322 331 337 340 342 349 360 353 353 29 35 36 33 32 33 31 31 29 28 27 25 24 28 30 30 24
245 272 267 117 152 173 205 243 195 196 193 186 189 211 168 163 205 254 303 327 337 340 348 4 9 358 354 29 41 46 40 37 36 35 32 29 26 22 23 26 25 29 35 30
242 261 266 127 147 169 212 299 165 185 188 186 196 195 123 155 190 224 279 320 325 336 358 6 360 357 17 35 48 57 58 52 44 42 39 32 26 22 20 26 27 28 34 33
214 234 245 144 164 201 227 105 170 181 185 187 191 174 162 182 194 205 224 273 320 334 3 9 3 357 28 46 55 90 99 80 58 47 40 39 36 29 27 23 26 29 28 29
225 255 63 176 197 208 210 187 181 182 183 184 186 185 190 195 195 198 214 219 286 320 334 6 18 4 14 50 118 155 142 113 81 67 56 41 35 33 32 27 23 24 23 21
254 255 228 210 218 212 210 208 189 185 182 185 187 189 191 194 194 197 202 206 235 271 308 12 17 8 5 16 193 185 168 153 134 77 64 57 38 27 29 25 18 18 18 13
248 260 236 223 218 211 204 205 191 187 186 187 189 190 190 192 195 197 196 199 217 247 292 328 352 4 9 329 220 200 183 179 179 115 52 38 50 32 16 40 22 360 4 6
244 240 220 211 202 202 199 199 194 188 188 191 192 191 191 194 191 194 198 199 207 216 237 254 301 347 19 315 249 228 202 191 195 194 201 316 357 111 149 342 49 31 18 2
267 300 242 246 207 197 198 198 194 193 192 190 193 194 193 192 189 193 199 204 209 211 224 241 258 282 -0 296 250 242 226 205 206 223 223 244 304 343 56 159 174 130 64 38
230 224 227 221 213 197 198 197 194 197 196 195 193 193 195 195 192 197 204 204 205 209 220 233 245 250 277 274 249 240 233 210 224 223 238 247 271 312 349 1 42 117 126 93
222 221 232 230 201 192 195 194 194 198 198 197 194 194 196 198 198 202 202 199 203 214 221 227 234 229 220 252 254 240 230 224 224 232 234 240 243 249 260 299 359 30 59 119
220 218 226 226 216 198 194 197 199 200 198 197 195 198 199 202 204 201 196 196 206 216 218 222 228 218 210 235 242 239 227 219 251 242 233 230 231 239 241 249 271 321 33 45
218 215 215 220 218 208 203 203 205 203 200 199 199 199 198 199 202 201 200 202 214 223 221 224 226 209 210 229 237 238 238 207 213 240 239 239 239 242 242 241 245 245 195 94
242 243 231 224 217 211 208 208 208 208 203 200 198 198 198 201 204 205 204 202 208 219 224 225 219 208 212 222 230 241 240 243 240 244 242 240 244 241 239 237 233 232 213 170
263 255 251 241 232 220 211 207 207 207 203 199 198 200 202 205 208 208 204 201 209 219 220 212 200 211 214 212 220 229 241 248 249 246 245 235 240 239 233 233 231 225 220 209
283 265 253 244 232 224 217 209 204 204 202 199 199 202 204 206 208 208 205 208 214 218 211 190 191 208 214 205 203 229 234 243 252 253 248 247 243 241 235 232 232 229 222 219
306 286 262 244 232 222 217 208 200 200 199 199 202 204 205 206 206 206 206 214 219 213 202 187 200 204 207 196 198 224 230 238 246 253 252 248 247 244 241 236 232 231 229 224
325 309 284 258 238 225 215 208 201 199 197 199 204 205 205 207 206 208 211 219 219 182 188 197 205 203 194 190 208 217 225 234 243 249 252 253 252 251 248 246 243 238 234 230
341 332 317 288 256 237 218 208 202 199 198 199 201 204 207 208 205 205 212 212 211 186 194 202 199 187 183 199 213 216 222 229 236 242 245 250 252 254 255 255 252 248 242 235
351 349 344 331 305 263 229 214 206 200 198 199 203 205 206 206 208 212 221 187 185 184 203 203 193 187 191 211 214 219 224 227 231 239 244 247 251 253 255 257 257 253 248 243
351 352 355 355 355 348 331 297 204 190 188 189 192 197 206 210 210 201 203 202 186 189 206 201 199 197 201 213 216 220 224 225 228 231 238 244 248 252 256 256 256 257 253 248
347 346 347 352 357 353 355 359 12 73 162 164 165 174 186 191 202 197 194 196 195 199 208 200 192 196 209 214 217 221 224 222 218 224 234 239 244 245 249 253 257 256 255 252
343 344 342 345 351 354 354 360 11 22 28 46 90 105 142 165 176 184 188 188 188 195 203 204 202 203 208 209 214 219 224 226 227 228 231 234 238 242 246 250 252 254 254 253